Flag for U.S.A. Weather past 2 weeks in Petersburg, Indiana, U.S.A.

Now
68 °F

Clear.


Feels Like: 68 °F
Forecast: 66 / 88 °F
Wind: No wind

Location: Huntingburg Airport

Current Time: Jul 31, 2015 at 12:14:46 AM

Latest Report: Jul 30, 2015 at 11:35 PM


Visibility: 10 mi

Pressure: 30.09 "Hg

Humidity: 88%

Dew point: 64 °F

Location of PetersburgLocation

Historic Weather in Petersburg — Graph

°F

Petersburg temperature yesterday

Maximum temperature yesterday: 86 °F (at 3:55 PM)
Minimum temperature yesterday: 66 °F (at 4:35 AM)
Average temperature yesterday: 76 °F

Past Weeks' High & Low Weather Summary

 TemperatureHumidityPressure
High93 °F (Jul 18, 5:15 PM)94% (Jul 16, 2:35 AM)30.13 "Hg (Jul 16, 2:35 AM)
Low63 °F (Jul 22, 6:35 AM)40% (Jul 30, 2:55 PM)29.78 "Hg (Jul 21, 3:55 AM)
Average78 °F73%29.96 "Hg
* Reported Jul 15 10:15 PM — Jul 30 10:55 PM, Petersburg, Weather by CustomWeather, © 2015

Note: Actual official high and low records may vary slightly from our data, if they occured in-between our weather recording intervals... More about our weather records

Advertising

Petersburg weather history for previous 24 hours

 ConditionsComfort  
Time TempWeatherWind HumidityBarometerVisibility
10:55 PM
Thu, Jul 30
70 °FClear.No wind83%30.09 "Hg10 mi
10:35 PM72 °FClear.No wind78%30.08 "Hg10 mi
10:15 PM72 °FClear.No wind78%30.08 "Hg10 mi
9:55 PM72 °FSunny.No wind78%30.07 "Hg10 mi
9:35 PM73 °FSunny.3 mph74%30.07 "Hg10 mi
8:55 PM75 °FSunny.3 mph74%30.06 "Hg10 mi
8:35 PM79 °FSunny.3 mph61%30.06 "Hg10 mi
8:15 PM81 °FSunny.3 mph58%30.06 "Hg10 mi
7:55 PM82 °FSunny.5 mph51%30.06 "Hg10 mi
7:35 PM82 °FSunny.5 mph51%30.06 "Hg10 mi
7:15 PM82 °FSunny.6 mph51%30.06 "Hg10 mi
6:55 PM82 °FSunny.5 mph48%30.06 "Hg10 mi
5:35 PM84 °FSunny.12 mph40%30.08 "Hg10 mi
5:15 PM86 °FSunny.10 mph40%30.09 "Hg10 mi
4:55 PM86 °FSunny.9 mph43%30.09 "Hg10 mi
4:35 PM86 °FSunny.13 mph46%30.10 "Hg10 mi
4:15 PM86 °FSunny.9 mph43%30.11 "Hg10 mi
3:55 PM86 °FSunny.8 mph43%30.11 "Hg10 mi
3:35 PM84 °FSunny.9 mph40%30.11 "Hg10 mi
3:15 PM84 °FSunny.9 mph40%30.12 "Hg10 mi
2:55 PM84 °FSunny.9 mph40%30.12 "Hg10 mi
2:35 PM84 °FSunny.13 mph43%30.13 "Hg10 mi
2:15 PM84 °FSunny.10 mph43%30.13 "Hg10 mi
1:55 PM84 °FSunny.8 mph45%30.13 "Hg10 mi
1:35 PM84 °FSunny.10 mph43%30.13 "Hg10 mi
1:15 PM84 °FSunny.10 mph45%30.13 "Hg10 mi
12:55 PM84 °FSunny.8 mph45%30.13 "Hg10 mi
12:35 PM84 °FSunny.6 mph48%30.13 "Hg10 mi
12:15 PM82 °FSunny.6 mph55%30.13 "Hg10 mi
11:55 AM82 °FSunny.7 mph55%30.13 "Hg10 mi
11:35 AM81 °FSunny.6 mph58%30.13 "Hg10 mi
11:15 AM81 °FSunny.6 mph58%30.13 "Hg10 mi
10:55 AM81 °FSunny.6 mph58%30.13 "Hg10 mi
10:35 AM79 °FSunny.6 mph58%30.13 "Hg10 mi
10:15 AM77 °FSunny.6 mph65%30.12 "Hg10 mi
9:55 AM75 °FSunny.6 mph65%30.12 "Hg10 mi
9:35 AM75 °FSunny.6 mph65%30.12 "Hg10 mi
9:15 AM73 °FSunny.10 mph69%30.12 "Hg10 mi
8:55 AM72 °FSunny.5 mph73%30.11 "Hg10 mi
8:35 AM72 °FSunny.6 mph73%30.11 "Hg10 mi
8:15 AM70 °FSunny.3 mph78%30.11 "Hg10 mi
7:55 AM66 °FSunny.No wind88%30.10 "Hg10 mi
7:35 AM66 °FClear.No wind83%30.10 "Hg10 mi
7:15 AM66 °FClear.3 mph83%30.09 "Hg10 mi
6:55 AM66 °FClear.No wind83%30.09 "Hg10 mi
6:35 AM66 °FClear.No wind83%30.08 "Hg10 mi
6:15 AM66 °FClear.5 mph83%30.08 "Hg10 mi
5:55 AM66 °FClear.6 mph83%30.07 "Hg10 mi
5:35 AM68 °FClear.3 mph78%30.07 "Hg10 mi
5:15 AM68 °FClear.5 mph78%30.07 "Hg10 mi
4:55 AM68 °FClear.3 mph83%30.07 "Hg10 mi
4:35 AM66 °FClear.3 mph88%30.07 "Hg10 mi
4:15 AM70 °FClear.3 mph78%30.06 "Hg10 mi
3:55 AM70 °FClear.No wind78%30.06 "Hg10 mi
3:35 AM72 °FClear.3 mph73%30.06 "Hg10 mi
3:15 AM72 °FClear.6 mph73%30.05 "Hg10 mi
2:55 AM72 °FClear.6 mph73%30.05 "Hg10 mi
2:35 AM73 °FClear.8 mph69%30.05 "Hg10 mi
2:15 AM73 °FClear.7 mph69%30.05 "Hg10 mi
1:55 AM75 °FClear.6 mph65%30.05 "Hg10 mi
1:35 AM75 °FClear.9 mph69%30.05 "Hg10 mi
1:15 AM75 °FClear.9 mph74%30.05 "Hg10 mi
12:55 AM77 °FClear.8 mph74%30.05 "Hg10 mi
12:35 AM77 °FClear.8 mph79%30.04 "Hg10 mi
Weather by CustomWeather, © 2015

See weather overviewHow to use our weather pages